FW0887 Weather Reports


Display with metric or nautical units.
time (UTC)temp
F
wind
direction
speed
MPH
gust
MPH
rain 1hr
in
rain 24hr
in
rain mn
in
humidity
%
barometer
mb
20260904234524 67 269 1.0 4.0 0.00 0.01 0.00 65 1015.6
20260904233825 69 248 2.0 5.0 0.00 0.01 0.00 64 1017.2
20260904233023 68 305 2.0 10.0 0.00 0.01 0.00 65 1015.2
20260904231522 69 88 3.0 10.0 0.00 0.01 0.00 66 1015.0
20260904230039 71 285 4.0 13.0 0.00 0.01 0.00 67 1014.9
20260904224513 72 269 2.0 9.0 0.00 0.01 0.00 68 1014.2
20260904223923 70 0.0 0.0 0.00 0.01 0.00 70 1015.3
20260904223007 70 246 0.0 0.0 0.00 0.01 0.00 70 1013.3
20260904221506 70 276 0.0 0.0 0.00 0.01 0.00 70 1013.2
20260904220005 70 208 0.0 0.0 0.00 0.01 0.00 69 1012.9
20260904214503 70 208 0.0 0.0 0.00 0.01 0.01 69 1012.7
20260904213751 71 0.0 0.0 0.00 0.01 0.01 68 1014.3
20260904213102 70 208 0.0 0.0 0.00 0.01 0.01 68 1012.5
20260904211500 71 208 0.0 0.0 0.00 0.01 0.01 68 1012.3
20260904210101 71 208 0.0 0.0 0.00 0.01 0.01 68 1012.2
20260904210003 71 208 0.0 0.0 0.00 0.01 0.01 68 1012.2
20260904204600 71 208 0.0 1.0 0.00 0.01 0.01 68 1012.2
20260904203727 73 0.0 0.0 0.00 0.01 0.01 67 1014.0
20260904203059 72 208 0.0 2.0 0.00 0.01 0.01 66 1012.3
20260904201600 72 208 0.0 5.0 0.00 0.01 0.01 67 1012.2
20260904200108 73 201 1.0 5.0 0.00 0.01 0.01 66 1012.2
20260904194559 72 198 2.0 5.0 0.00 0.01 0.01 66 1012.2
20260904193759 73 158 1.0 3.0 0.00 0.01 0.01 66 1013.8
20260904193057 73 202 1.0 4.0 0.00 0.01 0.01 66 1012.2
20260904191557 73 205 0.0 4.0 0.00 0.01 0.01 65 1012.2
20260904190056 73 205 1.0 3.0 0.00 0.01 0.01 65 1012.3
20260904184610 74 204 2.0 5.0 0.00 0.01 0.01 65 1012.2
20260904183726 75 203 2.0 2.0 0.00 0.01 0.01 65 1013.7
20260904183054 74 194 2.0 4.0 0.00 0.01 0.01 64 1012.1
20260904181553 75 227 2.0 6.0 0.00 0.01 0.01 63 1012.2
20260904180053 76 211 1.0 8.0 0.00 0.01 0.01 62 1012.1
20260904174615 77 213 1.0 5.0 0.00 0.01 0.01 60 1012.0
20260904173756 79 203 1.0 2.0 0.00 0.01 0.01 58 1013.8
20260904173052 78 221 1.0 7.0 0.00 0.01 0.01 59 1012.2
20260904171558 79 239 2.0 6.0 0.00 0.01 0.01 58 1012.2
20260904170052 79 222 3.0 8.0 0.00 0.01 0.01 58 1012.0
20260904164550 80 225 2.0 10.0 0.00 0.02 0.01 58 1012.0
20260904163714 80 203 8.0 10.0 0.00 0.02 0.01 56 1013.9
20260904163149 80 229 2.0 10.0 0.00 0.02 0.01 58 1012.1
20260904161558 80 202 2.0 15.0 0.00 0.02 0.01 58 1012.1
20260904160047 80 219 3.0 15.0 0.00 0.02 0.01 58 1012.0
20260904154547 81 229 8.0 17.0 0.00 0.08 0.01 56 1012.0
20260904153746 82 225 9.0 12.0 0.00 0.02 0.01 57 1014.0
20260904153052 81 207 7.0 15.0 0.00 0.08 0.01 58 1012.2
20260904151547 82 204 6.0 14.0 0.00 0.08 0.01 57 1012.2
20260904150044 82 190 8.0 15.0 0.00 0.08 0.01 57 1012.2
20260904144544 82 248 6.0 17.0 0.00 0.11 0.01 57 1012.4
20260904143715 81 203 9.0 15.0 0.00 0.10 0.01 58 1014.5
20260904143041 81 201 6.0 16.0 0.00 0.11 0.01 59 1012.6
20260904141540 82 213 4.0 14.0 0.00 0.11 0.01 59 1012.7
20260904140041 82 214 9.0 12.0 0.00 0.11 0.01 57 1012.8
20260904134537 82 206 8.0 14.0 0.00 0.13 0.01 59 1013.0
20260904133746 83 225 5.0 8.0 0.00 0.13 0.01 61 1015.2
20260904133035 82 212 5.0 12.0 0.00 0.13 0.01 59 1013.2
20260904131534 82 205 8.0 14.0 0.00 0.13 0.01 59 1013.4
20260904130032 81 201 4.0 16.0 0.00 0.13 0.01 60 1013.6
20260904124528 81 239 4.0 12.0 0.00 0.13 0.01 59 1014.0
20260904123717 80 225 10.0 17.0 0.00 0.13 0.01 61 1016.1
20260904123024 80 230 8.0 17.0 0.00 0.13 0.01 61 1014.4
20260904121522 79 213 9.0 19.0 0.00 0.13 0.01 64 1014.4
20260904120027 78 229 4.0 15.0 0.00 0.13 0.01 64 1014.8
20260904114518 77 213 5.0 16.0 0.00 0.13 0.01 65 1014.7
20260904113647 77 225 3.0 6.0 0.00 0.13 0.01 67 1016.7
20260904113015 76 219 4.0 10.0 0.00 0.13 0.01 68 1015.0
20260904111513 77 224 8.0 14.0 0.00 0.13 0.01 65 1015.3
20260904110011 77 215 3.0 15.0 0.00 0.13 0.01 67 1015.4
20260904104510 76 213 9.0 19.0 0.00 0.13 0.01 65 1015.7
20260904103736 77 225 6.0 15.0 0.01 0.13 0.01 68 1017.6
20260904103006 77 240 11.0 17.0 0.01 0.13 0.01 67 1016.0
20260904101505 75 220 3.0 13.0 0.01 0.13 0.01 72 1016.2
20260904100059 74 217 5.0 11.0 0.01 0.13 0.01 74 1016.4
20260904094557 73 211 5.0 17.0 0.01 0.13 0.01 76 1016.8
20260904093615 72 203 5.0 9.0 0.00 0.12 0.00 79 1018.5
20260904093100 72 213 6.0 10.0 0.00 0.12 0.00 78 1016.9
20260904091547 70 217 5.0 11.0 0.00 0.12 0.00 79 1017.2
20260904090043 69 188 3.0 8.0 0.00 0.12 0.00 82 1017.5
20260904084539 67 204 2.0 7.0 0.00 0.12 0.00 84 1017.5
20260904083646 66 180 2.0 3.0 0.00 0.12 0.00 86 1019.2
20260904083037 66 207 2.0 5.0 0.00 0.12 0.00 85 1017.8
20260904081530 65 196 2.0 4.0 0.00 0.12 0.00 86 1018.0
20260904080028 64 196 2.0 4.0 0.00 0.12 0.00 86 1018.2
20260904074526 64 194 2.0 5.0 0.00 0.12 0.00 87 1018.2
20260904073617 63 203 3.0 4.0 0.00 0.12 0.00 89 1019.3
20260904073046 63 195 2.0 4.0 0.00 0.12 0.00 88 1018.1
20260904071522 62 193 2.0 4.0 0.00 0.12 0.00 89 1018.3
20260904070019 62 205 2.0 4.0 0.00 0.12 0.00 90 1018.4
20260904064520 61 194 2.0 5.0 0.00 0.12 0.00 91 1018.2
20260904063547 61 180 1.0 3.0 0.00 0.12 0.00 92 1019.3
20260904063016 61 215 1.0 3.0 0.00 0.12 0.00 92 1018.3
20260904061514 60 187 0.0 2.0 0.00 0.12 0.00 92 1018.4
20260904060013 60 213 1.0 4.0 0.00 0.12 0.00 92 1018.2
20260904054513 59 202 1.0 4.0 0.00 0.12 0.00 93 1018.3
20260904053623 59 203 1.0 2.0 0.00 0.12 0.00 92 1019.3
20260904053011 59 188 0.0 3.0 0.00 0.12 0.00 93 1018.5
20260904051513 59 177 1.0 3.0 0.00 0.12 0.00 93 1018.5
20260904050009 59 190 1.0 3.0 0.00 0.12 0.00 93 1018.5
20260904044510 59 194 1.0 3.0 0.00 0.12 0.00 93 1018.4
20260904043713 59 180 2.0 2.0 0.00 0.12 0.00 93 1019.4
20260904043008 59 182 1.0 3.0 0.00 0.12 0.00 93 1018.6
20260904041506 58 181 0.0 0.0 0.00 0.12 0.00 92 1018.6
20260904040007 57 179 0.0 0.0 0.00 0.12 0.00 92 1018.8
20260904034505 57 179 0.0 0.0 0.00 0.12 0.00 92 1018.9
20260904033005 57 179 0.0 0.0 0.00 0.12 0.00 91 1019.0
20260904031503 57 179 0.0 0.0 0.00 0.12 0.00 91 1019.1
20260904030658 57 0.0 0.0 0.00 0.12 0.00 91 1020.2
20260904030002 57 179 0.0 0.0 0.00 0.12 0.00 91 1019.2
20260904024502 57 179 0.0 0.0 0.00 0.12 0.00 91 1019.2
20260904023001 57 179 0.0 0.0 0.00 0.12 0.00 92 1019.2
20260904021503 57 179 0.0 0.0 0.00 0.12 0.00 92 1019.3
20260904020611 57 0.0 0.0 0.00 0.12 0.00 91 1020.5
20260904020123 57 179 0.0 0.0 0.00 0.12 0.00 91 1019.5
20260904014646 57 179 0.0 0.0 0.00 0.12 0.00 91 1019.4
20260904013108 57 179 0.0 0.0 0.00 0.12 0.00 91 1019.3
20260904011605 57 179 0.0 0.0 0.00 0.12 0.00 91 1019.3
20260904010543 58 0.0 0.0 0.00 0.12 0.00 91 1020.7
20260904010058 58 179 0.0 0.0 0.00 0.12 0.00 91 1019.4
20260904004553 58 179 0.0 0.0 0.00 0.12 0.00 91 1019.5
20260904003059 58 179 0.0 1.0 0.00 0.12 0.00 91 1019.6
20260904001549 59 179 0.0 0.0 0.00 0.12 0.00 91 1019.6
20260904000513 60 0.0 0.0 0.00 0.12 0.00 92 1021.2
20260904000046 59 162 0.0 0.0 0.00 0.12 0.00 92 1019.8
20260903234545 59 28 0.0 0.0 0.00 0.12 0.00 91 1019.8